SCP
0 0 0 0 0 0 1 1 1 1 2 4 5 6 5 4 6 9 11 11 9 7 7 8 8 10 12 13 15 14 11 9 10 11 11 10 8 7 6 6 6 7 7 7
0 0 0 0 0 1 1 2 2 2 2 3 5 6 5 4 6 10 12 12 8 6 7 8 8 9 11 12 14 13 11 10 10 11 11 11 9 8 7 7 7 8 8 8
1 0 0 0 0 1 1 2 2 2 2 3 6 7 6 5 6 9 10 9 7 6 6 7 7 8 10 12 13 13 12 10 10 11 12 12 11 10 9 8 7 8 8 8
1 1 0 0 0 0 1 2 2 2 3 5 8 9 8 7 7 7 8 9 8 6 5 6 7 8 10 11 12 12 11 11 11 13 13 13 12 12 11 9 8 7 7 8
1 1 1 0 0 0 1 1 2 2 4 6 9 10 8 6 6 7 9 11 10 8 6 6 7 8 9 9 9 10 11 12 13 13 13 13 14 14 13 10 8 7 6 6
1 1 1 1 1 1 1 2 3 4 5 7 9 8 6 6 6 7 9 10 10 8 7 6 7 8 8 7 7 9 11 13 13 12 12 12 14 15 14 12 9 7 6 6
1 1 1 1 2 3 3 3 4 6 7 8 8 7 6 7 7 8 9 9 8 7 7 6 7 8 8 7 8 10 11 12 11 10 10 11 13 14 14 12 11 10 9 8
1 1 2 2 3 3 3 4 4 5 7 7 7 6 6 7 7 9 9 8 7 7 7 6 7 8 8 8 9 10 10 10 9 9 9 9 10 11 11 12 12 11 10 9
1 2 3 3 3 3 3 3 3 3 4 5 5 5 5 6 7 8 8 7 6 6 6 6 7 8 8 9 8 9 9 9 8 7 8 9 9 8 9 10 10 10 8 7
2 2 3 3 2 2 2 3 2 2 2 2 3 3 4 5 7 7 6 6 5 5 5 6 7 8 8 8 7 8 8 8 6 5 6 7 7 7 7 8 8 7 5 5
2 2 2 2 1 1 2 2 2 2 2 2 2 3 3 4 4 5 5 4 4 5 6 7 8 8 7 7 6 7 7 6 5 4 4 5 6 6 6 6 6 5 4 4
2 2 1 1 1 1 1 2 2 3 2 2 2 2 2 2 3 3 3 4 4 5 7 7 7 6 5 5 6 7 7 6 4 3 3 4 5 5 5 4 4 3 3 2
1 1 1 1 1 1 1 1 2 3 3 3 3 2 2 3 2 2 3 4 4 6 6 6 5 4 4 4 5 6 6 5 4 4 3 3 4 5 5 4 3 2 1 1
1 1 0 0 1 1 1 1 2 3 3 4 3 3 3 3 3 3 3 4 5 5 4 4 3 3 3 4 5 6 6 5 5 5 4 3 3 4 5 5 4 3 2 1
0 0 0 0 0 1 1 1 2 3 4 4 4 3 3 3 3 3 3 4 4 3 3 2 2 2 3 4 5 5 4 4 4 4 4 3 3 4 4 4 4 4 3 3
0 0 0 0 1 1 1 1 2 2 3 4 4 3 3 3 3 3 3 3 3 2 2 2 2 2 2 3 3 3 3 2 2 3 3 2 2 2 3 4 4 4 4 3
0 1 1 1 1 1 1 1 1 1 2 2 3 3 3 3 3 3 3 2 2 2 2 2 2 2 2 2 2 2 2 2 1 2 2 2 2 2 3 4 4 4 3 2
1 1 1 1 1 1 1 1 1 1 1 1 1 2 2 3 3 2 2 2 2 2 2 2 2 2 3 3 2 2 2 2 2 2 2 2 2 1 2 3 3 3 2 1
1 1 1 0 0 1 1 1 1 1 1 1 1 2 2 2 2 2 1 1 1 1 2 1 1 2 3 3 3 2 2 2 2 2 3 2 1 1 1 1 2 1 1 1
0 0 0 0 0 0 1 1 1 1 1 2 2 2 2 2 1 1 1 1 1 2 2 1 1 1 2 2 2 2 2 2 2 2 2 1 1 1 1 1 1 1 1 1
0 0 1 1 1 1 1 1 1 1 1 1 1 1 1 1 1 1 1 1 1 2 1 1 1 1 1 1 1 2 2 2 2 2 2 2 1 1 1 1 1 1 1 1
1 1 1 1 1 1 1 1 1 1 1 1 1 1 1 1 1 1 1 1 1 1 1 0 0 0 0 0 1 1 2 2 2 2 2 2 2 1 1 1 1 1 1 1
1 1 1 1 1 0 0 1 1 1 1 1 1 1 1 1 1 1 1 1 1 0 0 0 0 0 0 0 0 1 1 2 2 2 3 3 3 2 2 1 1 1 1 1
1 1 1 1 1 0 0 0 0 1 1 1 1 1 1 1 1 0 0 0 0 0 0 0 0 0 0 0 0 0 1 1 2 2 3 3 3 3 2 2 2 2 1 1
1 1 1 1 1 0 0 0 0 0 0 0 0 1 1 1 1 1 0 0 0 0 0 0 0 0 0 0 0 0 0 1 1 2 2 2 2 2 2 2 2 2 2 1
2 2 1 1 1 0 0 0 0 0 0 0 0 0 0 0 1 1 1 0 0 0 0 0 0 0 0 0 0 0 0 0 0 1 1 1 1 1 1 1 1 2 2 2
3 2 2 1 1 0 0 0 0 0 0 0 0 0 0 0 0 0 0 0 0 0 0 0 0 0 0 0 0 0 0 0 0 0 0 0 1 1 1 0 1 1 1 1
Wind_Speed
13 13 11 11 12 12 11 10 11 8 4 4 4 2 2 3 4 4 4 4 4 4 3 3 3 3 3 3 3 3 3 4 4 3 3 3 2 2 2 3 3 2 2 3
13 13 12 12 11 11 11 10 11 7 4 3 4 3 2 1 3 3 2 3 3 3 3 3 2 2 2 2 2 3 3 3 3 3 3 3 2 2 2 2 2 2 2 2
11 12 12 12 10 9 9 9 9 7 3 2 4 4 3 2 2 2 2 3 3 3 2 2 1 1 1 1 2 2 2 2 2 3 3 3 3 2 2 2 2 2 2 2
9 10 13 6 5 7 7 6 4 3 0 2 3 4 3 2 2 1 2 2 2 2 1 1 1 1 1 1 1 1 1 1 1 2 2 2 2 2 1 1 2 3 3 3
7 10 9 6 4 6 6 5 2 1 0 1 3 3 3 3 2 2 2 3 3 2 1 1 1 1 1 1 1 1 1 1 1 1 1 1 1 1 1 1 2 3 3 3
8 9 8 3 3 5 5 4 4 3 2 2 1 1 2 3 3 2 2 2 2 2 2 2 0 1 1 1 0 0 1 1 1 1 1 1 1 1 1 1 2 2 2 2
10 9 5 1 3 3 4 1 5 5 3 2 2 2 3 3 3 3 2 1 2 2 2 2 2 1 1 1 0 0 1 1 1 1 1 1 1 1 1 2 2 2 2 2
7 8 4 4 3 2 3 4 4 5 4 4 4 4 3 3 3 2 2 2 1 2 2 2 1 1 1 0 1 1 1 1 1 1 2 1 1 1 2 2 2 2 2 2
1 1 1 3 3 3 2 3 3 3 3 3 3 3 3 3 3 2 1 1 1 1 1 1 1 1 1 1 1 1 1 1 1 2 1 1 2 2 2 2 2 2 2 2
2 2 0 1 2 1 2 2 3 3 3 3 2 2 2 2 2 1 1 0 0 0 1 1 1 1 1 1 1 2 2 1 2 2 2 1 1 2 1 2 2 2 2 1
3 3 2 2 3 2 1 2 2 2 2 2 2 1 1 1 1 1 1 1 0 0 1 1 1 1 1 1 1 2 2 2 3 3 2 1 1 1 1 1 1 1 1 1
4 1 1 2 2 2 1 1 1 1 1 0 0 1 0 0 1 0 0 1 1 1 1 1 2 2 2 2 2 2 3 3 2 3 2 2 2 1 0 2 4 4 3 1
4 3 2 2 2 2 2 2 1 0 0 0 1 1 0 0 0 0 1 1 1 1 1 1 2 2 2 2 2 2 3 3 3 3 2 3 3 3 2 1 2 4 3 3
2 3 3 2 2 2 2 2 1 1 0 1 1 1 0 0 1 1 1 1 1 1 1 2 2 2 2 2 1 2 4 4 4 3 3 3 2 3 2 2 2 2 3 5
3 3 4 3 2 2 2 1 1 1 1 1 0 1 1 1 1 2 1 2 2 2 2 2 2 2 2 1 1 2 3 3 2 3 3 3 2 2 2 2 2 2 2 3
3 3 3 3 3 2 2 2 2 1 2 1 1 1 2 2 1 2 1 2 2 2 2 1 2 2 2 2 2 2 3 4 4 3 3 3 2 2 2 1 1 2 2 2
3 3 3 3 3 2 2 2 2 2 1 2 1 1 1 1 1 2 2 2 2 2 1 2 2 2 2 2 2 3 3 3 4 3 2 2 2 2 2 2 1 1 1 2
3 3 2 2 2 2 2 2 2 2 1 1 1 1 0 1 2 2 2 2 2 2 2 2 2 2 2 2 2 3 3 2 2 2 2 1 2 2 2 2 1 0 1 2
2 2 2 2 2 2 2 2 1 1 1 1 1 1 1 1 2 2 1 1 1 2 2 2 2 2 2 1 2 3 3 2 2 1 1 1 2 2 2 1 1 0 0 1
2 1 1 1 2 1 1 1 1 0 0 1 0 0 1 1 2 2 1 1 1 1 2 2 2 2 2 1 2 3 2 2 1 1 1 1 1 1 1 1 1 1 1 1
1 1 1 1 0 1 1 1 1 1 1 1 1 0 0 1 2 2 2 1 1 2 2 2 2 2 2 2 3 3 2 1 1 1 1 1 1 2 1 0 0 1 1 1
0 1 1 1 1 2 2 2 2 2 1 1 1 1 1 1 2 1 1 1 1 1 1 1 1 2 3 3 2 2 1 1 1 1 1 1 1 1 1 1 0 1 1 1
1 1 1 2 2 2 2 2 2 1 1 1 1 0 1 2 1 1 1 1 0 1 1 1 1 1 3 3 3 2 1 1 1 1 1 1 1 1 1 2 1 1 1 1
1 1 1 2 2 2 1 1 1 1 1 1 0 1 1 1 1 1 1 1 1 1 1 0 2 2 3 3 3 3 1 1 1 1 1 1 1 1 1 1 1 2 2 2
1 1 2 2 1 1 2 2 2 1 1 1 1 0 1 1 1 1 2 2 1 1 1 1 3 3 4 3 2 1 1 0 1 1 1 1 1 1 1 1 1 1 1 2
1 1 1 1 0 0 0 1 1 0 1 0 0 1 1 1 1 1 1 1 1 1 1 0 1 2 2 2 1 1 1 1 1 1 1 1 1 1 2 2 3 2 1 1
2 1 1 1 1 0 1 1 0 0 1 1 1 1 0 0 0 1 2 1 1 1 1 1 1 1 1 2 1 1 1 1 1 1 1 1 1 1 2 2 2 2 2 1
Wind_Direction
265 268 262 259 259 255 253 256 261 271 239 156 137 118 108 117 122 121 123 126 117 114 107 108 119 134 142 146 142 148 151 155 163 171 172 171 183 192 199 196 210 209 212 223
267 267 264 257 256 253 256 262 266 268 279 141 130 130 112 116 138 127 133 136 128 124 120 113 116 137 138 136 144 152 161 169 166 170 173 176 183 182 196 197 204 208 216 230
260 257 264 256 259 255 252 257 265 267 265 149 148 162 163 177 149 148 158 148 130 113 105 120 139 154 183 168 157 171 177 167 165 172 179 178 186 175 192 204 203 209 214 225
265 265 254 253 260 267 258 255 271 278 251 175 156 138 118 120 117 110 111 114 107 117 137 142 127 116 116 148 155 168 174 192 200 195 185 179 176 173 190 214 216 222 220 223
255 254 252 253 258 273 264 261 300 307 302 199 118 134 127 119 108 98 74 81 87 87 94 97 111 131 138 146 183 210 211 209 223 215 200 202 200 192 199 223 233 232 224 222
252 255 252 265 316 313 268 236 35 28 9 92 115 221 108 90 86 83 84 85 101 114 92 81 42 126 151 223 187 288 297 280 272 240 234 245 229 196 209 238 240 247 236 227
250 256 265 341 324 302 248 30 33 43 40 55 51 51 80 83 85 81 80 99 110 122 117 148 183 182 185 254 255 271 298 292 276 259 246 246 249 241 224 235 238 240 241 232
244 252 263 14 14 23 31 16 32 35 30 35 68 90 99 89 87 87 85 83 91 113 127 138 152 175 200 270 292 283 275 281 277 262 259 251 233 247 240 239 234 228 231 237
260 229 66 43 62 66 33 7 27 31 32 36 54 60 66 75 81 80 81 89 82 99 109 123 147 184 216 257 260 258 257 261 259 253 253 219 227 237 234 232 237 236 230 232
230 215 215 42 66 52 41 26 40 42 25 29 35 31 48 55 63 50 48 70 103 114 148 167 188 209 223 243 245 239 236 238 231 222 226 214 234 239 236 251 243 252 248 253
238 246 275 333 346 339 35 53 53 36 21 9 3 21 38 25 53 39 21 324 257 210 198 216 223 224 230 240 233 224 235 236 238 235 225 218 226 250 232 222 197 220 280 283
275 284 264 292 314 318 342 4 24 8 18 325 273 95 105 50 78 90 296 298 257 235 232 235 232 234 234 226 233 229 230 238 242 238 222 221 216 194 98 190 168 154 161 165
298 302 290 295 311 330 336 328 328 29 198 115 108 119 53 32 350 305 285 278 251 239 242 260 247 242 252 254 238 233 237 242 253 250 236 234 226 201 188 165 177 173 173 180
311 305 293 292 302 321 320 327 347 332 108 107 101 91 323 297 312 306 302 300 296 285 265 263 256 254 249 242 229 237 245 242 254 251 243 246 235 223 215 194 183 177 186 196
262 265 272 281 288 291 278 267 234 197 188 185 162 272 254 267 285 295 311 308 308 304 302 289 277 271 259 245 244 245 251 261 270 284 273 257 242 229 219 205 186 163 147 155
264 261 266 268 275 279 281 266 233 212 208 214 235 266 271 269 288 302 310 320 315 311 325 312 283 271 260 249 258 250 241 248 255 269 281 276 261 252 250 238 207 166 160 150
262 259 263 268 259 256 256 252 252 236 232 240 245 269 291 307 313 327 327 324 324 331 328 293 277 274 261 249 259 261 258 238 234 244 261 281 292 290 285 277 250 186 144 141
267 269 263 258 257 268 280 269 247 223 214 233 240 236 257 331 313 317 333 334 336 351 351 325 325 302 292 288 280 271 266 254 232 240 244 271 288 290 285 292 315 299 161 147
255 258 258 263 256 258 264 277 263 193 192 201 189 251 296 328 320 308 325 330 337 321 340 360 341 297 286 304 292 263 262 268 265 249 243 223 246 273 285 291 295 298 288 132
230 206 222 268 280 306 338 50 20 48 118 134 131 321 325 335 319 301 301 317 347 347 350 349 320 315 302 322 313 288 276 274 298 314 279 272 269 262 268 287 326 352 7 19
209 192 186 214 35 63 66 58 35 45 43 74 116 119 338 321 304 284 271 292 32 19 338 323 310 314 325 327 292 280 283 296 307 328 328 325 328 320 314 329 133 314 321 344
76 125 110 86 73 64 55 58 62 67 61 62 76 68 333 294 289 294 311 317 346 11 304 296 304 343 337 316 292 291 298 314 316 318 331 339 330 324 331 342 324 271 290 324
61 50 68 91 94 92 75 67 67 76 98 98 88 359 296 306 305 304 298 308 274 314 297 343 31 12 329 297 290 285 298 303 298 283 281 292 295 316 337 344 359 353 347 328
60 65 76 99 105 111 118 111 87 68 89 106 81 356 309 290 315 323 340 35 33 219 262 86 174 241 271 275 281 278 281 296 298 287 281 297 316 322 341 355 358 356 347 322
109 94 91 96 92 106 133 131 120 133 183 167 156 215 273 303 352 355 1 15 50 233 245 193 209 242 257 266 282 310 326 336 321 303 287 299 309 317 325 327 327 329 339 352
154 145 116 106 93 287 101 102 100 147 232 247 161 139 97 71 8 335 315 288 310 294 300 313 226 241 271 294 317 332 307 295 309 293 335 24 326 313 323 339 345 340 347 352
169 158 169 185 177 117 82 74 49 305 280 13 28 5 345 182 202 306 305 288 283 287 313 308 300 285 287 289 298 332 330 313 317 340 3 10 8 353 348 353 356 351 339 352